Koksijde, Belgium

6:56 PM CET on February 21, 2017 (GMT +0100)
Koksijde Air Base

Weather History for EBFN - February, 2013

Change the Weather History Date:

Friday, February 15, 2013

  Actual Average Record
Temperature  
Mean Temperature 40 °F -  
Max Temperature 46 °F 46 °F 58 °F (2017)
Min Temperature 34 °F 36 °F 30 °F (2003)
Degree Days  
Heating Degree Days 25    
Moisture  
Dew Point 39 °F    
Average Humidity 88    
Maximum Humidity 100    
Minimum Humidity 74    
Precipitation  
Precipitation 0.00 in - - ()
Sea Level Pressure  
Sea Level Pressure 30.09 in    
Wind  
Wind Speed 7 mph ()    
Max Wind Speed 13 mph    
Max Gust Speed -    
Visibility 6.0 miles    
Events      
Averages and records for this station are not official NWS values.
T = Trace of Precipitation, MM = Missing Value Source: Averaged Metar Reports

Daily Weather History Graph

Daily Weather History Graph

Search for Another Location

Airport or City:

Trip Planner

Search our weather history database for the weather conditions in past years. The results will help you decide how hot, cold, wet, or windy it might be!

Date:

Astronomy

Feb. 15, 2013 Rise Set
Actual Time 8:02 AM CET 6:05 PM CET
Civil Twilight 7:27 AM CET 6:39 PM CET
Nautical Twilight 6:49 AM CET 7:18 PM CET
Astronomical Twilight 6:11 AM CET 7:56 PM CET
Moon 9:47 AM CET (2/15) No Moon Set
Length of Visible Light 11h 11m
Length of Day
10h 03m
Waxing Crescent, 28% of the Moon is Illuminated
Feb 15
Waxing Crescent
Feb 17
First Quarter
Feb 25
Full
Mar 4
Last Quarter
Mar 11
New

Hourly Weather History & Observations

Time (CET) Temp. Windchill Dew Point Humidity Pressure Visibility Wind Dir Wind Speed Gust Speed Precip Events Conditions
12:14 AM 35.6 °F 31.7 °F 35.6 °F 100% 29.95 in 5.0 mi SW 4.6 mph - N/A   Mostly Cloudy
12:25 AM 37.4 °F 33.8 °F 35.6 °F 93% 29.95 in 5.0 mi WSW 4.6 mph - N/A   Mostly Cloudy
12:55 AM 35.6 °F 30.7 °F 33.8 °F 93% 29.95 in 4.3 mi WSW 5.8 mph - N/A   Mostly Cloudy
1:00 AM 35 °F - 35 °F 97% 29.96 in 4 mi WSW 4.5 mph - -   Partly Cloudy
1:01 AM 35.6 °F 30.7 °F 35.6 °F 100% 29.95 in 5.0 mi WSW 5.8 mph - N/A   Mostly Cloudy
1:25 AM 39.2 °F 34.2 °F 37.4 °F 93% 29.95 in 5.0 mi West 6.9 mph - N/A   Mostly Cloudy
1:55 AM 39.2 °F 34.2 °F 37.4 °F 93% 29.95 in 5.0 mi West 6.9 mph - N/A   Mostly Cloudy
2:55 AM 41.0 °F 35.8 °F 41.0 °F 100% 29.98 in 5.0 mi West 8.1 mph - N/A   Mostly Cloudy
3:25 AM 41.0 °F 35.8 °F 39.2 °F 93% 29.98 in 5.0 mi West 8.1 mph - N/A   Mostly Cloudy
4:25 AM 42.8 °F 38.6 °F 39.2 °F 87% 29.98 in 5.0 mi West 6.9 mph - N/A   Mostly Cloudy
4:55 AM 41.0 °F 34.7 °F 39.2 °F 93% 29.98 in 5.0 mi NW 10.4 mph - N/A   Mostly Cloudy
5:25 AM 41.0 °F 35.2 °F 39.2 °F 93% 29.98 in 5.0 mi NW 9.2 mph - N/A   Mostly Cloudy
5:55 AM 41.0 °F 34.7 °F 39.2 °F 93% 30.01 in 6.2 mi WNW 10.4 mph - N/A   Mostly Cloudy
6:25 AM 42.8 °F 37.5 °F 39.2 °F 87% 30.01 in 5.0 mi WNW 9.2 mph - N/A   Mostly Cloudy
6:55 AM 41.0 °F 35.2 °F 39.2 °F 93% 30.01 in 5.0 mi WNW 9.2 mph - N/A   Mostly Cloudy
7:00 AM 42 °F - 40 °F 88% 30.03 in 5 mi WNW 8.9 mph - -   Mostly Cloudy
7:25 AM 42.8 °F 37.5 °F 39.2 °F 87% 30.04 in 6.2 mi WNW 9.2 mph - N/A   Mostly Cloudy
7:55 AM 42.8 °F 37.0 °F 39.2 °F 87% 30.04 in 6.2 mi WNW 10.4 mph - N/A   Mostly Cloudy
8:25 AM 42.8 °F 37.5 °F 39.2 °F 87% 30.04 in 6.2 mi NW 9.2 mph - N/A   Mostly Cloudy
8:55 AM 41.0 °F 35.2 °F 39.2 °F 93% 30.04 in 6.2 mi WNW 9.2 mph - N/A   Mostly Cloudy
9:25 AM 42.8 °F 38.6 °F 39.2 °F 87% 30.06 in 6.2 mi WNW 6.9 mph - N/A   Scattered Clouds
9:55 AM 44.6 °F 39.7 °F 39.2 °F 81% 30.06 in 6.2 mi West 9.2 mph - N/A   Partly Cloudy
10:00 AM 44 °F - 40 °F 79% 30.08 in 9 mi West 8.9 mph - -   Scattered Clouds
10:24 AM 44.6 °F 38.8 °F 41.0 °F 87% 30.06 in 6.2 mi WNW 11.5 mph - N/A   Partly Cloudy
10:25 AM 44.6 °F 38.8 °F 41.0 °F 87% 30.06 in 6.2 mi WNW 11.5 mph - N/A   Partly Cloudy
10:55 AM 44.6 °F 39.7 °F 41.0 °F 87% 30.09 in 6.2 mi West 9.2 mph - N/A   Partly Cloudy
11:25 AM 44.6 °F 39.2 °F 41.0 °F 87% 30.09 in 6.2 mi West 10.4 mph - N/A   Partly Cloudy
12:25 PM 44.6 °F 39.2 °F 39.2 °F 81% 30.12 in 6.2 mi WNW 10.4 mph - N/A   Partly Cloudy
1:00 PM 45 °F - 40 °F 76% 30.13 in 8 mi West 8.9 mph - -   Scattered Clouds
1:55 PM 46.4 °F 41.5 °F 41.0 °F 81% 30.12 in 6.2 mi West 10.4 mph - N/A   Partly Cloudy
2:25 PM 46.4 °F 41.1 °F 39.2 °F 76% 30.12 in 6.2 mi West 11.5 mph - N/A   Partly Cloudy
2:30 PM 46.4 °F 41.1 °F 39.2 °F 76% 30.12 in 6.2 mi West 11.5 mph - N/A   Partly Cloudy
2:55 PM 46.4 °F 41.1 °F 39.2 °F 76% 30.12 in 6.2 mi WNW 11.5 mph - N/A   Partly Cloudy
3:25 PM 44.6 °F 39.2 °F 39.2 °F 81% 30.12 in 6.2 mi West 10.4 mph - N/A   Partly Cloudy
3:55 PM 44.6 °F 38.4 °F 39.2 °F 81% 30.12 in 6.2 mi West 12.7 mph - N/A   Partly Cloudy
4:00 PM 45 °F - 39 °F 74% 30.15 in 9 mi West 13.4 mph - -   Scattered Clouds
4:25 PM 46.4 °F 41.1 °F 39.2 °F 76% 30.12 in 6.2 mi WNW 11.5 mph - N/A   Partly Cloudy
4:38 PM 44.6 °F 39.7 °F 39.2 °F 81% 30.15 in 6.2 mi West 9.2 mph - N/A   Partly Cloudy
4:55 PM 44.6 °F 39.2 °F 39.2 °F 81% 30.15 in 6.2 mi WNW 10.4 mph - N/A   Scattered Clouds
5:25 PM 44.6 °F 40.2 °F 39.2 °F 81% 30.15 in 6.2 mi West 8.1 mph - N/A   Mostly Cloudy
6:25 PM 44.6 °F 42.2 °F 41.0 °F 87% 30.15 in 6.2 mi WNW 4.6 mph - N/A   Mostly Cloudy
6:55 PM 42.8 °F 40.1 °F 41.0 °F 93% 30.18 in 6.2 mi West 4.6 mph - N/A   Mostly Cloudy
7:00 PM 43 °F - 41 °F 89% 30.19 in 8 mi 4.5 mph - -   Mostly Cloudy
7:25 PM 42.8 °F - 41.0 °F 93% 30.18 in 6.2 mi Variable 2.3 mph - N/A   Mostly Cloudy
7:55 PM 42.8 °F 41.1 °F 41.0 °F 93% 30.18 in 6.2 mi Variable 3.5 mph - N/A   Mostly Cloudy
8:25 PM 42.8 °F 41.1 °F 39.2 °F 87% 30.18 in 6.2 mi Variable 3.5 mph - N/A   Mostly Cloudy
8:55 PM 42.8 °F 40.1 °F 39.2 °F 87% 30.18 in 6.2 mi SW 4.6 mph - N/A   Mostly Cloudy
9:25 PM 42.8 °F 41.1 °F 39.2 °F 87% 30.18 in 6.2 mi Variable 3.5 mph - N/A   Mostly Cloudy
9:55 PM 42.8 °F 41.1 °F 39.2 °F 87% 30.18 in 6.2 mi Variable 3.5 mph - N/A   Mostly Cloudy
10:00 PM 42 °F - 40 °F 88% 30.21 in 7 mi 2.2 mph - -   Mostly Cloudy
10:25 PM 41.0 °F 39.0 °F 39.2 °F 93% 30.21 in 6.2 mi Variable 3.5 mph - N/A   Mostly Cloudy
10:55 PM 41.0 °F - 39.2 °F 93% 30.21 in 5.6 mi Variable 2.3 mph - N/A   Mostly Cloudy
11:25 PM 41.0 °F 39.0 °F 39.2 °F 93% 30.21 in 5.6 mi Variable 3.5 mph - N/A   Mostly Cloudy
11:55 PM 41.0 °F 39.0 °F 39.2 °F 93% 30.21 in 5.6 mi Variable 3.5 mph - N/A   Mostly Cloudy